[[{"header":{"parameterUnit":"m.s-1","parameterCategory":1,"la1":30.2991,"la2":30.254,"lo1":-89.0895,"lo2":-89.0444,"dy":0.0017,"dx":0.0017,"nx":28,"ny":28,"refTime":"2025-11-29T09:00:00:Z","depth":0,"parameterNumber":2,"parameterNumberName":"U-component_of_WINDS"},"data":[0,0,0,0,0,0,0,0,0,0,0,0,0,0,0,0,0,0,0,0,0,0,0,0,0,0,0,0,0,0,0,0,0,0,0,0,0,0,0,0,0,0,0,0,0,0,0,0,0,0,0,0,0,0,0,0,0,0,-4.5701,-4.5702,0,-4.5803,-4.5804,-4.5805,-4.5719,-4.5716,-4.5712,-4.5709,-4.581,-4.5816,-4.5821,0,0,0,0,0,0,0,0,0,0,0,0,0,-4.543,-4.5435,-4.5701,-4.5702,-4.5703,-4.5803,-4.5804,-4.5805,-4.572,-4.5715,-4.5711,-4.5707,-4.5808,-4.5815,-4.5822,0,0,0,0,0,0,0,0,0,0,0,0,0,-4.5541,-4.5437,-4.57,-4.5673,-4.5671,-4.5802,-4.5804,-4.5806,-4.5721,-4.5715,-4.571,-4.5705,-4.5805,-4.5814,-4.5823,-4.5986,0,0,-4.5851,-4.5854,0,0,0,0,0,0,0,0,-4.5535,-4.5551,-4.5675,-4.5675,-4.5673,-4.5743,-4.5745,-4.5866,-4.5722,-4.5702,-4.5709,-4.5702,-4.5792,-4.5801,-4.5832,-4.5991,-4.5995,-4.5851,-4.5857,-4.5861,-4.5863,0,0,0,0,0,0,0,-4.5527,-4.5546,-4.5741,-4.5677,-4.5676,-4.5654,-4.5664,-4.5768,-4.5775,-4.5703,-4.5697,-4.5711,-4.579,-4.5824,-4.5834,-4.5996,-4.5851,-4.5859,-4.5865,-4.5868,-4.6294,-4.63,0,0,0,0,0,0,-4.5523,-4.554,-4.5738,-4.5744,-4.559,-4.5664,-4.5675,-4.5726,-4.5774,-4.5776,-4.5715,-4.5706,-4.5811,-4.5823,-4.5837,-4.603,-4.5861,-4.5869,-4.5874,-4.6288,-4.6295,-4.6302,0,0,0,0,0,0,-4.5517,-4.5541,-4.5733,-4.5641,-4.5664,-4.5674,-4.5732,-4.5731,-4.5764,-4.5783,-4.5784,-4.5748,-4.5807,-4.5824,-4.595,-4.6032,-4.5873,-4.5881,-4.6281,-4.629,-4.6299,-4.6418,0,0,0,0,0,0,-4.551,-4.554,-4.5602,-4.5643,-4.5669,-4.5845,-4.5737,-4.5737,-4.578,-4.577,-4.5814,-4.5817,-4.5804,-4.5937,-4.5959,-4.6042,-4.5888,-4.6274,-4.6285,-4.6296,-4.6407,-4.643,-4.645,0,0,0,0,0,-4.5501,-4.5631,-4.5605,-4.563,-4.5747,-4.585,-4.5865,-4.5849,-4.5788,-4.585,-4.5862,-4.5815,-4.6021,-4.595,-4.5974,-4.6062,-4.6268,-4.6282,-4.6295,-4.6397,-4.6426,-4.645,0,0,0,0,0,0,-4.5597,-4.5635,-4.5608,-4.5755,-4.5801,-4.5836,-4.5913,-4.588,-4.5942,-4.5929,-4.5906,-4.5917,-4.6049,-4.6068,-4.5989,-4.6222,-4.6135,-4.6153,-4.6204,-4.6231,-4.6253,-4.6244,-4.5896,0,0,0,0,0,-4.5636,-4.5718,-4.5747,-4.5874,-4.5898,-4.5903,-4.5947,-4.5931,-4.5976,-4.5995,-4.6016,-4.6061,-4.6136,-4.6185,-4.6255,-4.6411,-4.6419,-4.6483,-4.6504,-4.6522,-4.6537,-4.6621,-4.665,-4.6345,-4.6345,-4.6345,0,0,-4.5716,-4.5747,-4.58,-4.5894,-4.5927,-4.6011,-4.5919,-4.6012,-4.6073,-4.6008,-4.6128,-4.6146,-4.6194,-4.6336,-4.6399,-4.6356,-4.6624,-4.6539,-4.6553,-4.6559,-4.6638,-4.6666,-4.6692,-4.6354,-4.6353,-4.6351,0,0,-4.5905,-4.5938,-4.6047,-4.6083,-4.6135,-4.6138,-4.6164,-4.6206,-4.6215,-4.6336,-4.6289,-4.6362,-4.6492,-4.6528,-4.6564,-4.6771,-4.6729,-4.6794,-4.6905,-4.6987,-4.7011,-4.7032,-4.7104,-4.7131,-4.681,-4.6811,-4.6811,0,-4.5997,-4.6123,-4.6107,-4.6204,-4.6247,-4.6195,-4.6305,-4.634,-4.6412,-4.6442,-4.6394,-4.6556,-4.6585,-4.6734,-4.6785,-4.6816,-4.6845,-4.6787,-4.7009,-4.703,-4.705,-4.7118,-4.7146,-4.6818,-4.6817,-4.6816,-4.6816,0,-4.6234,-4.6322,-4.6404,-4.6477,-4.6529,-4.6632,-4.6632,-4.6687,-4.6668,-4.6676,-4.6799,-4.6833,-4.6909,-4.6944,-4.6926,-4.7091,-4.7063,-4.7013,-4.6923,-4.7086,-4.715,-4.7177,-4.6829,-4.6826,-4.6824,-4.6822,0,0,-4.6481,-4.6547,-4.6577,-4.6609,-4.6665,-4.6732,-4.6834,-4.691,-4.6957,-4.701,-4.7093,-4.7206,-4.716,-4.7201,-4.7187,-4.7259,-4.742,-4.72,-4.7201,-4.7238,-4.7603,-4.7639,-4.7669,-4.7395,-4.74,-4.7403,-4.7598,0,-4.6671,-4.6848,-4.6838,-4.7004,-4.7085,-4.7038,-4.7127,-4.717,-4.7181,-4.7251,-4.7263,-4.7342,-4.7277,-4.7301,-4.7371,-4.7385,-4.7492,-4.7372,-4.747,-4.7474,-4.7456,-4.7703,-4.774,-4.7922,-4.7624,-4.7628,-4.7631,0,-4.6914,-4.6977,-4.7151,-4.7196,-4.723,-4.7309,-4.7378,-4.7447,-4.7496,-4.7499,-4.7546,-4.7521,-4.7623,-4.7535,-4.7675,-4.7593,-4.7634,-4.7647,-4.7654,-4.766,-4.756,-4.7713,-4.798,-4.8007,-4.7671,-4.7667,-4.7665,0,-4.7075,-4.7204,-4.7324,-4.7354,-4.741,-4.7467,-4.7492,-4.7536,-4.7583,-4.7644,-4.7674,-4.7746,-4.7785,-4.7841,-4.7836,-4.7773,-4.7979,-4.789,-4.7982,-4.7983,-4.8024,-4.8021,-4.8299,-4.8056,-4.8056,-4.8055,-4.8055,0,-4.7285,-4.7393,-4.7397,-4.7471,-4.7591,-4.758,-4.7699,-4.7718,-4.7758,-4.7835,-4.78,-4.7872,-4.7863,-4.7936,-4.7933,-4.8049,-4.8068,-4.8072,-4.8069,-4.8073,-4.8072,-4.8097,-4.8083,-4.8063,-4.8061,-4.806,-4.8058,0,-4.7483,-4.7491,-4.7619,-4.7663,-4.7677,-4.7763,-4.7799,-4.7869,-4.7879,-4.7977,-4.7999,-4.8014,-4.8098,-4.81,-4.8197,-4.8195,-4.8336,-4.832,-4.8319,-4.8315,-4.8407,-4.8397,-4.8708,-4.8747,-4.8481,-4.8484,-4.8486,0,-4.7615,-4.7697,-4.7751,-4.7801,-4.783,-4.7911,-4.7959,-4.7952,-4.8004,-4.8067,-4.813,-4.8211,-4.8276,-4.8413,-4.8432,-4.8506,-4.849,-4.8594,-4.85,-4.8502,-4.8489,-4.8483,-4.849,-4.8611,-4.8614,-4.8616,-4.8618,0,-4.7848,-4.7849,-4.792,-4.7994,-4.8053,-4.8111,-4.8164,-4.8207,-4.8206,-4.8266,-4.8353,-4.8403,-4.8503,-4.8584,-4.8657,-4.8682,-4.865,-4.8648,-4.8673,-4.8676,-4.8671,-4.8673,-4.8366,-4.864,-4.8638,-4.8636,-4.8635,-4.8634,-4.8015,-4.8086,-4.8136,-4.8217,-4.8257,-4.8308,-4.8376,-4.8396,-4.8469,-4.855,-4.8542,-4.8638,-4.8687,-4.8781,-4.8814,-4.8888,-4.8852,-4.8889,-4.8897,-4.8906,-4.8915,-4.8663,-4.8902,-4.8901,-4.8901,-4.89,-4.89,0,-4.8244,-4.8274,-4.835,-4.8426,-4.8491,-4.8459,-4.8516,-4.8572,-4.8657,-4.8706,-4.8771,-4.8872,-4.8951,-4.8978,-4.9055,-4.911,-4.9097,-4.913,-4.9124,-4.913,-4.8944,-4.8913,-4.9139,-4.9139,-4.9139,-4.9139,-4.9139,-4.9139,-4.837,-4.8489,-4.8496,-4.8634,-4.8663,-4.8758,-4.8794,-4.8841,-4.888,-4.8994,-4.9061,-4.9079,-4.9119,-4.9199,-4.9271,-4.9276,-4.9305,-4.9344,-4.9344,-4.9168,-4.9143,-4.912,-4.9091,-4.9351,-4.9351,-4.9524,-4.9525,-4.9526]},{"header":{"parameterUnit":"m.s-1","parameterCategory":1,"la1":30.2991,"la2":30.254,"lo1":-89.0895,"lo2":-89.0444,"dy":0.0017,"dx":0.0017,"nx":28,"ny":28,"refTime":"2025-11-29T09:00:00:Z","depth":0,"parameterNumber":3,"parameterNumberName":"V-component_of_WINDS"},"data":[0,0,0,0,0,0,0,0,0,0,0,0,0,0,0,0,0,0,0,0,0,0,0,0,0,0,0,0,0,0,0,0,0,0,0,0,0,0,0,0,0,0,0,0,0,0,0,0,0,0,0,0,0,0,0,0,0,0,0.842,0.8418,0,0.8279,0.8277,0.8276,0.8185,0.8184,0.8184,0.8183,0.8034,0.8031,0.8027,0,0,0,0,0,0,0,0,0,0,0,0,0,0.8606,0.8603,0.842,0.8418,0.8416,0.8279,0.8277,0.8275,0.8185,0.8184,0.8184,0.8183,0.8035,0.8031,0.8027,0,0,0,0,0,0,0,0,0,0,0,0,0,0.8501,0.8602,0.842,0.8355,0.8348,0.828,0.8277,0.8275,0.8185,0.8184,0.8183,0.8183,0.8036,0.8031,0.8026,0.8011,0,0,0.801,0.8008,0,0,0,0,0,0,0,0,0.8508,0.8495,0.8366,0.8359,0.8351,0.8249,0.8288,0.8186,0.8185,0.8247,0.8183,0.8182,0.8106,0.8095,0.807,0.8004,0.7997,0.801,0.8007,0.8005,0.8003,0,0,0,0,0,0,0,0.8515,0.85,0.8364,0.8364,0.8355,0.8331,0.8315,0.8269,0.8182,0.8241,0.8234,0.8219,0.8101,0.8075,0.8066,0.7995,0.801,0.8005,0.8002,0.8,0.7909,0.791,0,0,0,0,0,0,0.8533,0.8507,0.8368,0.836,0.8429,0.8329,0.8311,0.8282,0.8183,0.8167,0.822,0.8215,0.8085,0.8072,0.806,0.8035,0.8005,0.8,0.7997,0.7909,0.791,0.791,0,0,0,0,0,0,0.8537,0.8522,0.8374,0.8431,0.8411,0.8326,0.8295,0.828,0.8254,0.8167,0.815,0.8209,0.8083,0.8068,0.8024,0.8029,0.7997,0.7993,0.7908,0.7909,0.791,0.7985,0,0,0,0,0,0,0.8543,0.8524,0.8518,0.8432,0.8408,0.8342,0.8295,0.8278,0.8246,0.8238,0.8152,0.8137,0.8082,0.8032,0.8019,0.8021,0.7989,0.7907,0.7908,0.791,0.7982,0.7989,0.7995,0,0,0,0,0,0.855,0.8543,0.8518,0.8502,0.8399,0.8342,0.8328,0.8266,0.8247,0.8239,0.8183,0.814,0.8031,0.8029,0.8013,0.8013,0.7906,0.7908,0.791,0.7979,0.7988,0.7995,0,0,0,0,0,0,0.8629,0.8531,0.8501,0.8467,0.8414,0.8327,0.8315,0.8276,0.8226,0.8221,0.8144,0.8126,0.809,0.8047,0.8047,0.7993,0.7964,0.7962,0.8022,0.8029,0.8036,0.8045,0.7984,0,0,0,0,0,0.8643,0.8606,0.8522,0.8499,0.8475,0.84,0.8373,0.833,0.8271,0.8247,0.8188,0.8132,0.8085,0.8055,0.8007,0.7977,0.7956,0.7969,0.7976,0.7981,0.798,0.7961,0.7965,0.7916,0.7916,0.7916,0,0,0.867,0.8612,0.8593,0.8514,0.8467,0.843,0.8381,0.8344,0.8315,0.8241,0.8196,0.8152,0.8083,0.8047,0.8028,0.801,0.799,0.7983,0.7989,0.7984,0.7963,0.7968,0.7972,0.7917,0.7916,0.7916,0,0,0.87,0.8653,0.8629,0.8585,0.8516,0.8467,0.8462,0.8382,0.835,0.8305,0.8249,0.8213,0.8134,0.8087,0.8054,0.807,0.8027,0.8056,0.8088,0.807,0.8074,0.8077,0.8082,0.8085,0.8056,0.8056,0.8056,0,0.8741,0.8684,0.8621,0.8587,0.8554,0.8489,0.8463,0.8423,0.8342,0.832,0.8302,0.8202,0.8152,0.8103,0.8108,0.8083,0.8073,0.8064,0.8079,0.8082,0.8083,0.8087,0.8089,0.806,0.8059,0.8059,0.8059,0,0.8738,0.87,0.8688,0.8614,0.858,0.8551,0.8482,0.8455,0.8416,0.8369,0.8324,0.8262,0.82,0.8186,0.8146,0.8132,0.8124,0.8094,0.8062,0.8093,0.8095,0.8096,0.8065,0.8064,0.8063,0.8062,0,0,0.881,0.8704,0.8701,0.8667,0.8588,0.8556,0.8525,0.8467,0.8444,0.8392,0.8362,0.8298,0.8271,0.8232,0.8187,0.8172,0.8188,0.8144,0.8141,0.8153,0.8168,0.8189,0.8192,0.8161,0.8161,0.8161,0.8173,0,0.8827,0.8767,0.8711,0.8671,0.8634,0.8573,0.8545,0.8494,0.845,0.8411,0.8362,0.8317,0.8285,0.8262,0.8244,0.819,0.819,0.8189,0.8131,0.813,0.8148,0.8193,0.8215,0.8229,0.8174,0.8174,0.8174,0,0.8837,0.879,0.8747,0.8673,0.8656,0.8632,0.8575,0.854,0.848,0.8449,0.8408,0.8362,0.8324,0.8299,0.8246,0.8246,0.822,0.819,0.8189,0.8179,0.8152,0.8183,0.8232,0.8234,0.8175,0.8175,0.8174,0,0.8892,0.8818,0.8783,0.8756,0.8669,0.8654,0.8617,0.8557,0.8526,0.8476,0.8455,0.8401,0.8371,0.833,0.827,0.8257,0.8223,0.8192,0.8194,0.8196,0.8187,0.8188,0.8231,0.8174,0.8174,0.8174,0.8174,0,0.8916,0.8891,0.8806,0.8785,0.8756,0.8692,0.8665,0.8622,0.857,0.8538,0.8482,0.8453,0.8377,0.8338,0.8291,0.8254,0.8241,0.8214,0.8201,0.8217,0.8221,0.8197,0.8193,0.8175,0.8174,0.8174,0.8174,0,0.8971,0.8913,0.8871,0.8794,0.8774,0.8756,0.869,0.8666,0.862,0.858,0.8567,0.8495,0.8447,0.8384,0.8316,0.8284,0.8252,0.8233,0.8273,0.8265,0.827,0.8269,0.8297,0.8297,0.8243,0.8243,0.8244,0,0.8988,0.8969,0.8891,0.8867,0.8832,0.8793,0.8763,0.87,0.8669,0.8602,0.8586,0.8535,0.849,0.8416,0.8356,0.8304,0.8282,0.8296,0.8274,0.8291,0.8281,0.8282,0.8279,0.83,0.8301,0.8302,0.8303,0,0.9025,0.8998,0.8957,0.8906,0.8872,0.8828,0.8782,0.8765,0.8692,0.8661,0.8613,0.8578,0.8511,0.8459,0.84,0.836,0.8319,0.8311,0.8308,0.8323,0.8346,0.8333,0.8285,0.831,0.8309,0.8308,0.8308,0.8308,0.906,0.904,0.8983,0.8939,0.8898,0.8857,0.8831,0.8784,0.8743,0.8684,0.8649,0.8602,0.8544,0.8461,0.8423,0.8385,0.8368,0.8365,0.8363,0.8363,0.8368,0.8355,0.8374,0.8373,0.8373,0.8373,0.8373,0,0.9092,0.9053,0.9014,0.8952,0.8918,0.8886,0.8834,0.8806,0.8766,0.8717,0.8675,0.862,0.8571,0.8509,0.8456,0.8437,0.8417,0.8425,0.8424,0.8415,0.8386,0.8393,0.8442,0.8442,0.8442,0.8442,0.8442,0.8442,0.9105,0.9069,0.9036,0.898,0.8941,0.8896,0.8869,0.8831,0.8791,0.8732,0.8693,0.8654,0.8599,0.8541,0.8495,0.8478,0.846,0.8474,0.8451,0.8424,0.8417,0.8411,0.8418,0.8471,0.8471,0.8483,0.8483,0.8483]}]]